Location: Quedlinburg
(51.7921°N, 11.1414°E)
Time: 15:38:17
(UTC+02:00)

CUBESAT XI-V - Pass Details

Date: 18 March 2026
Orbit: 643 x 664 km, 98.3° (Epoch: 17 April)

Event Time Altitude Azimuth Distance (km) Brightness Sun altitude
Exits shadow 01:26:50 13° 54° (NE) 1,872 ? -37.5°
Maximum altitude 01:26:54 13° 53° (NE) 1,872 ? -37.5°
Drops below altitude 10° 01:28:56 10° 26° (NNE) 2,067 ? -37.4°
Sets 01:32:16 0° 359° (N) 2,979 ? -37.2°
